Tracking 19832 objects as of 25-Aug-2019
HD Live streaming from Space Station
objects crossing your sky now

FENGYUN 1C DEB

Track FENGYUN 1C DEB now!
10-day predictions


NORAD ID: 30365
Int'l Code: 1999-025ACC
Perigee: 720.4 km
Apogee: 968.5 km
Inclination: 98.7 °
Period: 101.7 minutes
Semi major axis: 7215 km
RCS: 0.026 m2 (small)
Launch date: May 10, 1999
Source: People's Republic of China (PRC)
Launch site: Taiyaun Space Center, China (TSC)

Note: This is SATELLITE DEBRIS
aabbcc
Your satellite tracking list
Your tracking list is empty




NASA's NSSDC Master Catalog

Two Line Element Set (TLE):
1 30365U 99025ACC 19236.76104441  .00000066  00000-0  48211-4 0  9992
2 30365  98.6990 265.5491 0171928 253.8206 172.4220 14.16465740650160
Source of the keplerian elements: AFSPC